Main page
METAR-TAF:

METAR-TAF

Airports :

Piacenza, Italy

Piacenza Air Base

latitude: 44-55N, longitude: 009-44E, elevation: 134 m

Current weather observation

The report was made 29 minutes ago, at 06:55 UTC
Wind 2 kt from the South
Temperature 2°C
Humidity 100%
Pressure 1019 hPa
Visibility: 5000 m
mist

METAR: LIMS 220655Z 18002KT 5000 BR NSC 02/02 Q1019 RMK SCT SCT200 VIS MIN 4000NE WIND THR30 02002KT GRN

Time: 08:24 (07:24 UTC)


TAF: missing

Weather observations and forecasts of more than 4000 airports (METAR and TAF reports).

The available stations are represented by yellow and red dots on the map.

Hover mouse over dot to see the name of the station.

Then click to see weather observations and forecasts.

To change the map : click on the green buttons with a black cross to zoom in, on the green button with a dash to zoom out, or on the green arrows for adjacent maps.


METAR-TAF: